• Join FlightAware (Why Join?)
  • Login
  • US Flag GB Flag 
20:54 EST


 

Airport Tracker/Info


-or-


 

Live Flight TrackerFlight Track Log ✈ N559LC ✈ 04-Oct-2013 ✈ KDTW - KOAK

Flight Track Log - Related Links

Times and Time Zones

All times are in EDT time to prevent confusion due to time zone crossing. See the N559LC flight status page for this flight to view local times or setup timezone preferences in your user account.

Time Position Orientation Groundspeed Altitude Reporting Facility
EDT Latitude Longitude Course Direction KTS MPH feet Rate Location/Type
15:21 42.1944 -83.3542 275° West 178 205 1,300  Level Cleveland Center
15:22 42.1733 -83.3850 227° Southwest 197 227 2,800 2,220 Climbing Cleveland Center
15:23 42.1281 -83.4519 228° Southwest 260 299 5,000 2,700 Climbing Cleveland Center
15:24 42.1233 -83.5383 266° West 265 305 8,300 2,820 Climbing Cleveland Center
15:25 42.1622 -83.6206 303° West 276 318 10,700 2,400 Climbing Cleveland Center
15:25 42.1647 -83.6261 301° West 274 315 10,800 2,100 Climbing Cleveland Center
15:26 42.2111 -83.7258 302° West 324 373 12,900 1,020 Climbing Cleveland Center
15:27 42.2684 -84.3869 275° West  Level Estimated
15:27 42.2642 -83.8394 302° West 354 407 13,000  Level Cleveland Center
15:28 42.3197 -83.9589 302° West 373 429 13,900 1,320 Climbing Cleveland Center
15:29 42.3644 -84.0733 298° West 354 407 15,800 2,040 Climbing Cleveland Center
15:30 42.3875 -84.2067 283° West 362 417 18,200 2,340 Climbing Cleveland Center
15:31 42.4144 -84.3683 283° West 369 425 20,700 2,160 Climbing Cleveland Center
15:32 42.4367 -84.5083 282° West 379 436 22,800 1,800 Climbing Cleveland Center
15:33 42.4408 -84.6508 272° West 381 438 24,500 1,800 Climbing Cleveland Center
15:34 42.4444 -84.8131 272° West 387 445 26,600 1,560 Climbing Cleveland Center
15:35 42.4486 -84.9603 272° West 391 450 27,800 1,080 Climbing Cleveland Center
15:36 42.4503 -85.1136 271° West 404 465 28,900 1,200 Climbing Cleveland Center
15:37 42.4542 -85.2700 272° West 414 476 30,300 1,440 Climbing Cleveland Center
15:38 42.4561 -85.4264 271° West 415 478 31,900 1,500 Climbing Cleveland Center
15:39 42.4592 -85.5817 272° West 414 476 33,500 1,740 Climbing Cleveland Center
15:40 42.4600 -85.7328 270° West 403 464 35,600 1,260 Climbing Cleveland Center
15:41 42.4625 -85.9119 271° West 400 460 36,200 1,500 Climbing Cleveland Center
15:42 42.4647 -86.0617 271° West 397 457 38,800 1,800 Climbing Cleveland Center
15:43 42.4542 -86.1933 264° West 358 412 40,000 540 Climbing Cleveland Center
15:45 42.4328 -86.3589 260° West 371 427 40,000  Level Chicago Center
15:50 42.3340 -87.1270 260° West 100 115 40,000  Level FlightAware
15:51 42.3220 -87.2240 261° West 382 440 40,000  Level FlightAware
15:52 42.3100 -87.3140 260° West 383 441 40,000  Level FlightAware
15:52 42.3000 -87.3880 260° West 381 438 40,000  Level FlightAware
15:53 42.2870 -87.4820 259° West 385 443 40,000  Level FlightAware
15:53 42.2770 -87.5530 259° West 388 447 40,000  Level FlightAware
15:54 42.2630 -87.6580 260° West 384 442 40,000  Level FlightAware
15:55 42.2490 -87.7420 257° West 390 449 40,000  Level FlightAware
15:55 42.2360 -87.8140 256° West 390 449 40,000  Level FlightAware
15:56 42.2240 -87.8870 258° West 390 449 40,000  Level FlightAware
15:57 42.2110 -87.9600 257° West 390 449 40,000  Level FlightAware
15:57 42.1980 -88.0360 257° West 390 449 40,000  Level FlightAware
15:58 42.1860 -88.1050 257° West 390 449 40,000  Level FlightAware
15:58 42.1740 -88.1780 258° West 390 449 40,000  Level FlightAware
15:59 42.1620 -88.2500 257° West 390 449 40,000  Level FlightAware
16:00 42.1490 -88.3250 257° West 390 449 40,000  Level FlightAware
16:00 42.1360 -88.3970 256° West 390 449 40,000  Level FlightAware
16:01 42.1240 -88.4720 258° West 390 449 40,000  Level FlightAware
16:01 42.1110 -88.5440 256° West 390 449 40,000  Level FlightAware
16:02 42.0980 -88.6190 257° West 390 449 40,000  Level FlightAware
16:03 42.0860 -88.6910 257° West 390 449 40,000  Level FlightAware
16:03 42.0730 -88.7680 257° West 390 449 40,000  Level FlightAware
16:04 42.0600 -88.8400 256° West 390 449 40,000  Level FlightAware
16:05 42.2033 -89.3542 256° West 401 461 40,000  Level Chicago Center
16:06 42.1981 -89.4994 267° West 392 451 40,000  Level Chicago Center
16:07 42.1950 -89.6458 268° West 391 450 40,000  Level Chicago Center
16:08 42.1889 -89.8186 267° West 387 445 40,000  Level Chicago Center
16:09 42.1842 -89.9381 267° West 383 441 40,000  Level Chicago Center
16:10 42.1786 -90.1119 268° West 389 448 40,000  Level Chicago Center
16:12 42.1714 -90.2575 266° West 392 451 40,000  Level Chicago Center
16:13 42.1669 -90.4036 268° West 393 452 40,000  Level Chicago Center
16:14 42.1600 -90.5503 266° West 394 453 40,000  Level Chicago Center
16:15 42.1531 -90.6958 266° West 392 451 40,000  Level Chicago Center
16:16 42.1458 -90.8714 267° West 393 452 40,000  Level Chicago Center
16:17 42.1281 -91.0139 260° West 392 451 40,000  Level Chicago Center
16:18 42.0897 -91.1511 249° West 393 452 40,000  Level Chicago Center
16:19 42.0497 -91.2892 249° West 396 456 40,000  Level Chicago Center
16:20 42.0058 -91.4272 247° West 402 463 40,000  Level Chicago Center
16:21 41.9533 -91.5956 247° West 407 468 40,000  Level Chicago Center
16:22 41.9094 -91.7361 247° West 408 470 40,000 420 Level Chicago Center
16:23 41.8678 -91.8733 248° West 402 463 40,900 480 Climbing Chicago Center
16:24 41.8269 -92.0075 248° West 394 453 41,000  Climbing Chicago Center
16:25 41.7897 -92.1467 250° West 398 458 41,000  Level Chicago Center
16:26 41.7792 -92.3308 266° West 410 472 41,000  Level Chicago Center
16:27 41.7739 -92.4822 267° West 411 473 41,000  Level Chicago Center
16:28 41.7692 -92.6353 268° West 414 476 41,000  Level Chicago Center
16:29 41.7647 -92.7578 267° West 411 473 41,000  Level Minneapolis Center
16:30 41.7589 -92.9167 267° West 406 467 41,000  Level Minneapolis Center
16:31 41.7528 -93.0600 267° West 397 457 41,000  Level Minneapolis Center
16:32 41.7475 -93.2081 267° West 399 459 41,000  Level Minneapolis Center
16:33 41.7400 -93.3900 267° West 408 470 41,000  Level Minneapolis Center
16:34 41.7336 -93.5400 267° West 409 471 41,000  Level Minneapolis Center
16:35 41.7261 -93.6886 266° West 407 468 41,000  Level Minneapolis Center
16:36 41.7208 -93.8383 267° West 409 471 41,000  Level Minneapolis Center
16:37 41.7136 -93.9981 267° West 410 472 41,000  Level Minneapolis Center
16:38 41.7058 -94.1508 266° West 411 473 41,000  Level Minneapolis Center
16:39 41.6983 -94.3031 266° West 411 473 41,000  Level Minneapolis Center
16:40 41.6903 -94.4853 267° West 408 470 41,000  Level Minneapolis Center
16:41 41.6814 -94.6361 266° West 407 468 41,000  Level Minneapolis Center
16:42 41.6744 -94.7867 267° West 406 467 41,000  Level Minneapolis Center
16:43 41.6650 -94.9347 265° West 400 460 41,000  Level Minneapolis Center
16:44 41.6575 -95.0833 266° West 402 463 41,000  Level Minneapolis Center
16:45 41.6492 -95.2319 266° West 402 463 41,000  Level Minneapolis Center
16:46 41.6389 -95.4108 266° West 402 463 41,000  Level Minneapolis Center
16:48 41.6292 -95.5594 265° West 403 464 41,000  Level Minneapolis Center
16:49 41.6211 -95.7022 266° West 410 472 41,000  Level Minneapolis Center
16:50 41.6119 -95.8542 265° West 410 472 41,000  Level Minneapolis Center
16:51 41.6011 -96.0331 265° West 405 466 41,000  Level Minneapolis Center
16:52 41.5911 -96.1831 265° West 405 466 41,000  Level Minneapolis Center
16:53 41.5800 -96.3333 264° West 406 467 41,000  Level Minneapolis Center
16:54 41.5700 -96.4847 265° West 409 471 41,000  Level Minneapolis Center
16:55 41.5586 -96.6336 264° West 408 470 41,000  Level Minneapolis Center
16:56 41.5481 -96.7811 265° West 405 466 41,000  Level Minneapolis Center
16:57 41.5378 -96.9267 265° West 398 458 41,000  Level Minneapolis Center
16:58 41.5242 -97.1064 264° West 405 466 41,000  Level Minneapolis Center
16:59 41.5136 -97.2578 265° West 408 470 41,000  Level Minneapolis Center
17:00 41.5014 -97.4069 264° West 407 468 41,000  Level Minneapolis Center
17:01 41.4903 -97.5575 264° West 409 471 41,000  Level Minneapolis Center
17:02 41.4789 -97.7064 264° West 407 468 41,000  Level Minneapolis Center
17:03 41.4667 -97.8508 264° West 397 457 41,000  Level Minneapolis Center
17:04 41.4544 -98.0183 264° West 384 442 41,000  Level Minneapolis Center
17:05 41.4411 -98.1628 263° West 385 443 41,000  Level Minneapolis Center
17:06 41.4286 -98.3061 263° West 389 448 41,000  Level Minneapolis Center
17:07 41.4178 -98.4489 264° West 390 449 41,000  Level Minneapolis Center
17:08 41.4047 -98.5961 263° West 395 455 41,000  Level Minneapolis Center
17:09 41.3917 -98.7436 263° West 399 459 41,000  Level Minneapolis Center
17:10 41.3772 -98.8928 263° West 403 464 41,000  Level Minneapolis Center
17:11 41.3614 -99.0728 263° West 406 467 41,000  Level Minneapolis Center
17:12 41.3492 -99.2156 264° West 407 468 41,000  Level Minneapolis Center
17:13 41.3350 -99.3633 263° West 406 467 41,000  Level Minneapolis Center
17:14 41.3214 -99.5094 263° West 402 463 41,000  Level Minneapolis Center
17:15 41.3047 -99.6861 263° West 401 461 41,000  Level Minneapolis Center
17:16 41.2903 -99.8336 263° West 403 464 41,000  Level Minneapolis Center
17:17 41.2764 -99.9806 263° West 403 464 41,000  Level Minneapolis Center
17:18 41.2614 -100.1278 262° West 402 463 41,000  Level Minneapolis Center
17:20 41.2464 -100.2750 262° West 403 464 41,000  Level Minneapolis Center
17:21 41.2311 -100.4217 262° West 402 463 41,000  Level Minneapolis Center
17:22 41.2125 -100.5994 262° West 404 465 41,000  Level Minneapolis Center
17:23 41.1914 -100.7931 262° West 401 461 41,000  Level Denver Center
17:24 41.1761 -100.9328 262° West 403 464 41,000  Level Denver Center
17:25 41.1575 -101.0953 261° West 403 464 41,000  Level Denver Center
17:26 41.1419 -101.2369 262° West 407 468 41,000  Level Denver Center
17:27 41.1236 -101.4006 262° West 404 465 41,000  Level Denver Center
17:28 41.1075 -101.5400 261° West 402 463 41,000  Level Denver Center
17:29 41.0892 -101.7042 262° West 404 465 41,000  Level Denver Center
17:30 41.0725 -101.8456 261° West 406 467 41,000  Level Denver Center
17:31 41.0525 -102.0100 261° West 405 466 41,000  Level Denver Center
17:32 41.0358 -102.1522 261° West 406 467 41,000  Level Denver Center
17:33 41.0186 -102.2956 261° West 412 474 41,000  Level Denver Center
17:34 40.9981 -102.4639 261° West 416 479 41,000  Level Denver Center
17:35 40.9806 -102.6094 261° West 418 481 41,000  Level Denver Center
17:36 40.9600 -102.7783 261° West 416 479 41,000  Level Denver Center
17:37 40.9419 -102.9222 261° West 414 476 41,000 -240 Level Denver Center
17:38 40.9214 -103.0839 260° West 421 484 40,600 -360 Descending Denver Center
17:39 40.9017 -103.2325 260° West 414 476 40,300 -300 Descending Denver Center
17:40 40.8842 -103.3775 261° West 404 465 40,000 -180 Descending Denver Center
17:42 40.8606 -103.5492 260° West 400 460 40,000  Level Denver Center
17:43 40.8419 -103.6975 261° West 408 470 40,000  Level Denver Center
17:44 40.8219 -103.8439 260° West 408 470 40,000  Level Denver Center
17:45 40.8011 -103.9917 259° West 410 472 40,000  Level Denver Center
17:46 40.7811 -104.1422 260° West 416 479 40,000  Level Denver Center
17:47 40.7606 -104.2922 260° West 417 480 40,000  Level Denver Center
17:48 40.7342 -104.4761 259° West 426 490 40,000  Level Denver Center
17:49 40.7133 -104.6294 260° West 428 493 40,000  Level Denver Center
17:50 40.6919 -104.7772 259° West 418 481 40,000  Level Denver Center
17:51 40.6706 -104.9261 259° West 416 479 40,000  Level Denver Center
17:52 40.6483 -105.0750 259° West 417 480 40,000  Level Denver Center
17:53 40.6269 -105.2225 259° West 413 475 40,000  Level Denver Center
17:54 40.5997 -105.4025 259° West 419 482 40,000  Level Denver Center
17:55 40.5778 -105.5550 259° West 425 489 40,000  Level Denver Center
17:56 40.5539 -105.7072 258° West 427 491 40,000  Level Denver Center
17:57 40.5308 -105.8594 259° West 426 490 40,000  Level Denver Center
17:58 40.5072 -106.0094 258° West 422 486 40,000  Level Denver Center
17:59 40.4811 -106.1825 259° West 422 486 40,000  Level Denver Center
18:00 40.4586 -106.3269 258° West 423 487 40,000  Level Denver Center
18:01 40.4314 -106.4958 258° West 423 487 40,000  Level Denver Center
18:02 40.4100 -106.6322 258° West 430 495 40,000  Level Denver Center
18:03 40.3844 -106.7869 258° West 434 499 40,000  Level Denver Center
18:04 40.3564 -106.9650 258° West 434 499 40,000  Level Denver Center
18:05 40.3325 -107.1125 258° West 434 499 40,000  Level Denver Center
18:06 40.3036 -107.2853 258° West 436 502 40,000  Level Denver Center
18:07 40.2772 -107.4342 257° West 439 505 40,000  Level Denver Center
18:08 40.2492 -107.6100 258° West 444 511 40,000  Level Denver Center
18:09 40.2222 -107.7608 257° West 445 512 40,000  Level Denver Center
18:10 40.1925 -107.9364 258° West 445 512 40,000  Level Denver Center
18:11 40.1672 -108.0856 258° West 442 509 40,000  Level Denver Center
18:12 40.1358 -108.2614 257° West 445 512 40,000  Level Denver Center
18:13 40.1094 -108.4114 257° West 446 513 40,000  Level Denver Center
18:15 40.0786 -108.5886 257° West 451 519 40,000  Level Denver Center
18:16 40.0506 -108.7408 257° West 455 524 40,000  Level Denver Center
18:17 40.0189 -108.9169 257° West 452 520 40,000  Level Denver Center
18:18 39.9906 -109.0686 256° West 453 521 40,000  Level Denver Center
18:19 39.9569 -109.2475 256° West 458 527 40,000  Level Denver Center
18:20 39.9289 -109.3994 257° West 455 524 40,000  Level Denver Center
18:21 39.8958 -109.5767 256° West 452 520 40,000  Level Denver Center
18:22 39.8661 -109.7311 256° West 459 528 40,000  Level Denver Center
18:23 39.8308 -109.9133 256° West 465 535 40,000  Level Denver Center
18:24 39.7933 -110.1200 257° West 464 534 40,000  Level Salt Lake Center
18:25 39.7631 -110.2742 256° West 462 532 40,000  Level Salt Lake Center
18:26 39.7281 -110.4517 256° West 457 526 40,000  Level Salt Lake Center
18:27 39.6983 -110.6053 256° West 458 527 40,000  Level Salt Lake Center
18:28 39.6672 -110.7600 255° West 464 534 40,000  Level Salt Lake Center
18:29 39.6317 -110.9392 256° West 461 531 40,000  Level Salt Lake Center
18:30 39.6006 -111.0911 255° West 458 527 40,000  Level Salt Lake Center
18:31 39.5633 -111.2706 255° West 462 532 40,000  Level Salt Lake Center
18:32 39.5297 -111.4311 255° West 464 534 40,000  Level Salt Lake Center
18:33 39.4972 -111.5919 255° West 462 532 40,000  Level Salt Lake Center
18:34 39.4622 -111.7528 254° West 463 533 40,000  Level Salt Lake Center
18:35 39.4286 -111.9133 255° West 462 532 40,000  Level Salt Lake Center
18:36 39.3961 -112.0725 255° West 459 528 40,000  Level Salt Lake Center
18:37 39.3617 -112.2336 255° West 464 534 40,000  Level Salt Lake Center
18:38 39.3217 -112.4217 255° West 458 527 40,000  Level Salt Lake Center
18:39 39.2872 -112.5761 254° West 451 519 40,000  Level Salt Lake Center
18:40 39.2553 -112.7133 253° West 452 520 40,000  Level Salt Lake Center
18:42 39.2136 -112.9031 254° West 459 528 40,000  Level Salt Lake Center
18:43 39.1792 -113.0619 254° West 463 533 40,000  Level Salt Lake Center
18:44 39.1428 -113.2183 253° West 460 529 40,000  Level Salt Lake Center
18:45 39.1064 -113.3783 254° West 465 535 40,000  Level Salt Lake Center
18:50 39.1665 -114.0801 254° West 40,000  Level FlightAware ADS-B
18:51 39.2891 -113.9952 28° Northeast 40,000  Level FlightAware ADS-B
18:52 38.8489 -114.4797 28° Northeast 442 509 40,000  Level Salt Lake Center
18:53 38.8128 -114.6306 253° West 445 512 40,000  Level Salt Lake Center
18:54 38.7758 -114.7839 253° West 450 518 40,000  Level Salt Lake Center
18:55 38.7381 -114.9372 253° West 454 522 40,000  Level Salt Lake Center
18:56 38.6914 -115.1239 252° West 459 528 40,000  Level Salt Lake Center
18:57 38.6528 -115.2783 252° West 459 528 40,000  Level Salt Lake Center
18:58 38.6144 -115.4297 252° West 455 524 40,000  Level Salt Lake Center
18:59 38.5778 -115.5828 253° West 453 521 40,000  Level Salt Lake Center
19:00 38.5394 -115.7344 252° West 449 517 40,000  Level Salt Lake Center
19:01 38.5017 -115.8836 252° West 443 510 40,000  Level Salt Lake Center
19:02 38.4628 -116.0328 252° West 442 509 40,000  Level Salt Lake Center
19:03 38.4258 -116.1808 252° West 439 505 40,000  Level Salt Lake Center
19:04 38.3806 -116.3542 252° West 430 495 40,000  Level Salt Lake Center
19:05 38.3433 -116.4964 252° West 425 489 40,000  Level Salt Lake Center
19:06 38.3056 -116.6397 251° West 427 491 40,000  Level Salt Lake Center
19:07 38.2683 -116.7833 252° West 428 493 40,000  Level Salt Lake Center
19:08 38.2300 -116.9272 251° West 429 494 40,000  Level Salt Lake Center
19:09 38.1922 -117.0714 252° West 432 497 40,000  Level Salt Lake Center
19:10 38.1561 -117.2106 252° West 431 496 40,000  Level Salt Lake Center
19:11 38.1078 -117.3853 251° West 447 514 40,000  Level Salt Lake Center
19:12 38.0686 -117.5311 251° West 441 507 40,000  Level Salt Lake Center
19:13 38.0292 -117.6736 251° West 431 496 40,000  Level Salt Lake Center
19:15 37.9997 -117.8469 258° West 422 486 40,000  Level Oakland Center
19:16 37.9947 -117.9922 268° West 416 479 40,000  Level Oakland Center
19:17 37.9875 -118.1656 267° West 410 472 40,000  Level Oakland Center
19:18 37.9811 -118.3097 267° West 410 472 40,000  Level Oakland Center
19:19 37.9761 -118.4594 268° West 420 483 40,000  Level Oakland Center
19:20 37.9692 -118.6075 267° West 421 484 40,000  Level Oakland Center
19:21 37.9625 -118.7558 267° West 421 484 40,000  Level Oakland Center
19:22 37.9603 -118.9058 269° West 425 489 40,000  Level Oakland Center
19:23 37.9522 -119.0556 266° West 424 488 40,000  Level Oakland Center
19:24 37.9439 -119.2181 266° West 427 491 40,000  Level Oakland Center
19:25 37.9372 -119.3686 267° West 428 493 40,000 -720 Level Oakland Center
19:26 37.9306 -119.5208 267° West 432 497 38,600 -1,680 Descending Oakland Center
19:27 37.9203 -119.6778 265° West 445 512 36,600 -1,980 Descending Oakland Center
19:28 37.9117 -119.8361 266° West 449 517 34,600 -1,980 Descending Oakland Center
19:29 37.9039 -119.9972 267° West 456 525 32,600 -2,160 Descending Oakland Center
19:30 37.8925 -120.1958 266° West 468 539 30,200 -2,160 Descending Oakland Center
19:31 37.8819 -120.3600 265° West 470 541 28,200 -2,100 Descending Oakland Center
19:32 37.8733 -120.5072 266° West 439 505 26,000 -2,340 Descending Oakland Center
19:33 37.8664 -120.6433 266° West 399 459 23,500 -2,460 Descending Oakland Center
19:34 37.8581 -120.7775 266° West 383 441 21,000 -2,580 Descending Oakland Center
19:35 37.8500 -120.9000 265° West 375 432 18,400 -2,580 Descending Northern Cal TRACON
19:36 37.8333 -121.0500 262° West 368 423 16,000 -2,160 Descending Northern Cal TRACON
19:37 37.8333 -121.1667 270° West 366 421 14,100 -2,100 Descending Northern Cal TRACON
19:38 37.8000 -121.2833 250° West 376 433 11,900 -1,740 Descending Northern Cal TRACON
19:39 37.7500 -121.3833 238° Southwest 332 382 10,900 -1,020 Descending Northern Cal TRACON
19:40 37.7167 -121.4833 247° West 309 356 9,900 -960 Descending Northern Cal TRACON
19:41 37.6833 -121.5833 247° West 301 346 9,000 -900 Descending Northern Cal TRACON
19:42 37.6500 -121.6833 247° West 306 352 8,100 -660 Descending Northern Cal TRACON
19:43 37.6333 -121.7833 258° West 301 346 7,700 -1,020 Descending Northern Cal TRACON
19:44 37.6167 -121.8833 258° West 275 316 6,100 -2,040 Descending Northern Cal TRACON
19:45 37.6500 -121.9667 297° West 273 314 3,700 -1,620 Descending Northern Cal TRACON
19:46 37.6667 -122.0500 284° West 228 262 3,100 -900 Descending Northern Cal TRACON
19:47 37.6833 -122.1167 288° West 187 215 1,900 -1,140 Descending Northern Cal TRACON
19:48 37.7167 -122.1667 310° West 170 196 800 -1,140 Descending Northern Cal TRACON
19:50 37.7167 -122.2167 270° West  Level FlightAware Approximate
19:57 37.7213 -122.2207 270° West  Level Estimated
19:58 37.7167 -122.2167 270° West  Level FlightAware Approximate